This is the latest recevied weather packets stored in our database for station/object KJ7BRE-1. If no packets are shown the sender has not sent any weather packets the latest 10 day(s).
| Time | Temp. | Humidity | Pressure | Rain* | Wind** | Luminosity | Snow |
|---|---|---|---|---|---|---|---|
| 1788109829 | 16.67° C | 67% | 1019.3 hPa | 0 mm | - | - | - |
| 1788109528 | 16.67° C | 67% | 1019.3 hPa | 0 mm | - | - | - |
| 1788109226 | 16.67° C | 66% | 1019.3 hPa | 0 mm | - | - | - |
| 1788108925 | 17.22° C | 65% | 1019.3 hPa | 0 mm | - | - | - |
| 1788108624 | 17.22° C | 65% | 1019 hPa | 0 mm | - | - | - |
| 1788108323 | 17.22° C | 65% | 1019 hPa | 0 mm | - | - | - |
| 1788108022 | 17.78° C | 64% | 1019 hPa | 0 mm | - | - | - |
| 1788107720 | 18.33° C | 63% | 1019.3 hPa | 0 mm | - | - | - |
| 1788107419 | 17.22° C | 65% | 1019.3 hPa | 0 mm | - | - | - |
| 1788107118 | 17.22° C | 67% | 1019.3 hPa | 0 mm | - | - | - |
| 1788106817 | 17.22° C | 67% | 1019.6 hPa | 0 mm | - | - | - |
| 1788106515 | 17.22° C | 68% | 1019.6 hPa | 0 mm | - | - | - |
| 1788106213 | 17.22° C | 67% | 1019.6 hPa | 0 mm | - | - | - |
| 1788105912 | 16.67° C | 67% | 1019.6 hPa | 0 mm | - | - | - |
| 1788105611 | 16.67° C | 66% | 1020 hPa | 0 mm | - | - | - |
| 1788105310 | 17.22° C | 67% | 1019.6 hPa | 0 mm | - | - | - |
| 1788105007 | 16.67° C | 68% | 1019.6 hPa | 0 mm | - | - | - |
| 1788104706 | 16.67° C | 69% | 1019.6 hPa | 0 mm | - | - | - |
| 1788104405 | 15.56° C | 71% | 1019.6 hPa | 0 mm | - | - | - |
| 1788104104 | 15.56° C | 70% | 1019.6 hPa | 0 mm | - | - | - |
| 1788103802 | 16.11° C | 69% | 1019.6 hPa | 0 mm | - | - | - |
| 1788103501 | 16.67° C | 68% | 1020 hPa | 0 mm | - | - | - |
| 1788103200 | 16.11° C | 69% | 1019.6 hPa | 0 mm | - | - | - |
| 1788102898 | 15.56° C | 71% | 1020 hPa | 0 mm | - | - | - |
| 1788102597 | 14.44° C | 75% | 1019.6 hPa | 0 mm | - | - | - |
* Rain latest hour (hover to see other rain measurements)
** Current wind speed in m/s (hover to see current wind gust speed)